Hourly Data Report for December 12, 2016

CARBERRY CS
MANITOBA

49°54'20.900" N
99°21'26.800" W
383.50 m
5010547
71170
WZE

Download Data

Hourly Data (December 2016)
Hourly Data Report for December 12, 2016
TIME
LST
Temp Definition
°C
Dew Point Definition
°C
Rel Hum Definition
%
Precip. Amount Definition
mm

Wind Dir Definition
10's deg

Wind Spd Definition
km/h
Visibility Definition
km
Stn Press Definition
kPa
Hmdx Definition


Wind Chill Definition


Weather Definition


00:00 -21.4 -24.2 78 0.0 24 14   96.55   -30 LegendNANA
01:00 -20.8 -23.6 78 0.0 24 14   96.49   -30 LegendNANA
02:00 -20.0 -22.8 78 0.0 24 15   96.50   -29 LegendNANA
03:00 -20.8 -23.5 79 0.0 24 13   96.49   -29 LegendNANA
04:00 -21.0 -23.9 78 0.0 26 23   96.47   -32 LegendNANA
05:00 -20.7 -24.6 71 0.0 28 27   96.47   -33 LegendNANA
06:00 -22.1 -26.2 69 0.0 28 30   96.52   -35 LegendNANA
07:00 -22.9 -27.1 68 0.0 28 30   96.57   -36 LegendNANA
08:00 -23.8 -27.9 69 0.0 28 22   96.61   -36 LegendNANA
09:00 -24.1 -28.1 69 0.0 28 20   96.64   -36 LegendNANA
10:00 -23.8 -28.3 66 0.0 27 22   96.70   -36 LegendNANA
11:00 -22.7 -28.0 62 0.0 27 19   96.71   -34 LegendNANA
12:00 -22.1 -27.3 63 0.0 26 24   96.68   -34 LegendNANA
13:00 -21.5 -26.7 63 0.0 27 22   96.65   -33 LegendNANA
14:00 -20.6 -25.9 63 0.0 26 28   96.58   -33 LegendNANA
15:00 -19.9 -25.2 62 0.0 25 21   96.57   -31 LegendNANA
16:00 -19.8 -24.9 64 0.0 24 17   96.57   -29 LegendNANA
17:00 -20.8 -24.9 70 0.0 23 13   96.57   -29 LegendNANA
18:00 -23.1 -26.4 74 0.0 22 14   96.56   -33 LegendNANA
19:00 -22.2 -25.5 74 0.0 23 14   96.56   -31 LegendNANA
20:00 -21.1 -24.7 73 0.0 24 17   96.55   -31 LegendNANA
21:00 -20.3 -23.0 79 0.0 25 17   96.54   -30 LegendNANA
22:00 -21.4 -24.4 77 0.0 26 16   96.57   -31 LegendNANA
23:00 -22.5 -26.4 71 0.0 27 23   96.60   -34 LegendNANA

Notes on Data Quality.

Legend

  • E = Estimated
  • M = Missing
  • NA = Not Available*
  • [empty] = Indicates an unobserved value
Date modified: